[[{"header":{"parameterUnit":"m.s-1","parameterCategory":1,"la1":30.2991,"la2":30.254,"lo1":-89.0895,"lo2":-89.0444,"dy":0.0017,"dx":0.0017,"nx":28,"ny":28,"refTime":"2025-11-19T09:00:00:Z","depth":0,"parameterNumber":2,"parameterNumberName":"U-component_of_WINDS"},"data":[0,0,0,0,0,0,0,0,0,0,0,0,0,0,0,0,0,0,0,0,0,0,0,0,0,0,0,0,0,0,0,0,0,0,0,0,0,0,0,0,0,0,0,0,0,0,0,0,0,0,0,0,0,0,0,0,0,0,-0.2852,-0.2852,0,-0.2873,-0.2873,-0.2873,-0.2876,-0.2875,-0.2875,-0.2875,-0.2897,-0.2898,-0.2899,0,0,0,0,0,0,0,0,0,0,0,0,0,-0.2817,-0.2818,-0.2852,-0.2852,-0.2853,-0.2872,-0.2873,-0.2873,-0.2876,-0.2875,-0.2875,-0.2875,-0.2897,-0.2898,-0.2899,0,0,0,0,0,0,0,0,0,0,0,0,0,-0.2835,-0.2818,-0.2852,-0.2856,-0.2857,-0.2872,-0.2873,-0.2873,-0.2876,-0.2875,-0.2875,-0.2875,-0.2897,-0.2898,-0.2899,-0.2912,0,0,-0.2903,-0.2903,0,0,0,0,0,0,0,0,-0.2834,-0.2836,-0.2855,-0.2856,-0.2857,-0.2871,-0.2869,-0.2886,-0.2876,-0.2869,-0.2875,-0.2875,-0.2889,-0.2891,-0.2895,-0.2913,-0.2914,-0.2903,-0.2904,-0.2904,-0.2904,0,0,0,0,0,0,0,-0.2833,-0.2835,-0.286,-0.2856,-0.2857,-0.2858,-0.286,-0.2872,-0.288,-0.2869,-0.2869,-0.2872,-0.2889,-0.2894,-0.2896,-0.2915,-0.2903,-0.2904,-0.2905,-0.2905,-0.2946,-0.2946,0,0,0,0,0,0,-0.283,-0.2834,-0.286,-0.2861,-0.2844,-0.2859,-0.2861,-0.2867,-0.288,-0.2882,-0.2872,-0.2872,-0.2892,-0.2895,-0.2897,-0.2914,-0.2904,-0.2905,-0.2906,-0.2945,-0.2946,-0.2946,0,0,0,0,0,0,-0.283,-0.2833,-0.2859,-0.2848,-0.2851,-0.286,-0.2866,-0.2867,-0.2872,-0.2882,-0.2884,-0.2875,-0.2892,-0.2895,-0.2909,-0.2914,-0.2906,-0.2907,-0.2945,-0.2945,-0.2946,-0.2947,0,0,0,0,0,0,-0.2829,-0.2832,-0.2837,-0.2848,-0.2852,-0.287,-0.2866,-0.2868,-0.2874,-0.2874,-0.2886,-0.2887,-0.2892,-0.2907,-0.291,-0.2916,-0.2908,-0.2944,-0.2945,-0.2946,-0.2947,-0.2948,-0.2949,0,0,0,0,0,-0.2827,-0.2837,-0.2837,-0.284,-0.2857,-0.287,-0.2872,-0.2877,-0.2875,-0.288,-0.2886,-0.2887,-0.2913,-0.2908,-0.2911,-0.2918,-0.2944,-0.2945,-0.2946,-0.2946,-0.2948,-0.2949,0,0,0,0,0,0,-0.2827,-0.2838,-0.2839,-0.2852,-0.286,-0.287,-0.2877,-0.2878,-0.2888,-0.2887,-0.2893,-0.2896,-0.2909,-0.2915,-0.2909,-0.2932,-0.2928,-0.293,-0.2928,-0.2929,-0.293,-0.2929,-0.2909,0,0,0,0,0,-0.2828,-0.2837,-0.2846,-0.2857,-0.2861,-0.2868,-0.2874,-0.2877,-0.2886,-0.2889,-0.2897,-0.2906,-0.2916,-0.2923,-0.2933,-0.2947,-0.2951,-0.2954,-0.2955,-0.2956,-0.2957,-0.2966,-0.2968,-0.2949,-0.2949,-0.2949,0,0,-0.2831,-0.2838,-0.2844,-0.2857,-0.2864,-0.2873,-0.2871,-0.2881,-0.2889,-0.2891,-0.2904,-0.291,-0.2921,-0.2935,-0.2942,-0.294,-0.2963,-0.2957,-0.2957,-0.2958,-0.2967,-0.2969,-0.297,-0.2949,-0.2949,-0.2949,0,0,-0.2842,-0.2848,-0.2857,-0.2864,-0.2874,-0.2879,-0.2881,-0.2892,-0.2896,-0.2909,-0.2911,-0.292,-0.2938,-0.2945,-0.2951,-0.2965,-0.2967,-0.2968,-0.2974,-0.2982,-0.2984,-0.2985,-0.2991,-0.2993,-0.297,-0.297,-0.297,0,-0.2844,-0.2858,-0.2862,-0.2872,-0.2879,-0.2881,-0.2891,-0.2898,-0.2911,-0.2915,-0.2913,-0.2936,-0.2943,-0.2959,-0.2963,-0.2967,-0.2971,-0.2967,-0.2983,-0.2985,-0.2986,-0.2991,-0.2993,-0.297,-0.297,-0.297,-0.297,0,-0.2861,-0.2871,-0.2878,-0.289,-0.2897,-0.2907,-0.2913,-0.292,-0.2923,-0.2928,-0.2942,-0.2951,-0.2963,-0.2967,-0.2969,-0.2984,-0.2983,-0.2982,-0.2979,-0.2988,-0.2993,-0.2995,-0.297,-0.297,-0.297,-0.297,0,0,-0.2872,-0.2886,-0.2889,-0.2894,-0.2906,-0.2914,-0.2924,-0.2936,-0.2942,-0.2951,-0.296,-0.2975,-0.2975,-0.2982,-0.2985,-0.2993,-0.3004,-0.2991,-0.2992,-0.2994,-0.3022,-0.3023,-0.3025,-0.3005,-0.3006,-0.3006,-0.3021,0,-0.2884,-0.2902,-0.2907,-0.2923,-0.2932,-0.2935,-0.2944,-0.2953,-0.2958,-0.2967,-0.2973,-0.2984,-0.2982,-0.2987,-0.2994,-0.3001,-0.301,-0.3,-0.3015,-0.3015,-0.3013,-0.3028,-0.3028,-0.3042,-0.3023,-0.3023,-0.3024,0,-0.2901,-0.291,-0.2927,-0.2937,-0.2941,-0.295,-0.2961,-0.2969,-0.2979,-0.2983,-0.2991,-0.2994,-0.3006,-0.3001,-0.3019,-0.3012,-0.3018,-0.3023,-0.3023,-0.3025,-0.302,-0.3031,-0.3047,-0.3049,-0.3027,-0.3027,-0.3026,0,-0.2908,-0.2924,-0.2936,-0.2941,-0.2954,-0.296,-0.2965,-0.2975,-0.2982,-0.2992,-0.2996,-0.3008,-0.3014,-0.3023,-0.3029,-0.3026,-0.3046,-0.3042,-0.305,-0.305,-0.3055,-0.3055,-0.3073,-0.3058,-0.3058,-0.3058,-0.3058,0,-0.2921,-0.2932,-0.294,-0.2948,-0.296,-0.2965,-0.2977,-0.2983,-0.2991,-0.3001,-0.3003,-0.3012,-0.302,-0.303,-0.3035,-0.3049,-0.3052,-0.3055,-0.3057,-0.3055,-0.3055,-0.306,-0.306,-0.3058,-0.3058,-0.3058,-0.3058,0,-0.2931,-0.2937,-0.2951,-0.2961,-0.2964,-0.2973,-0.2982,-0.299,-0.2996,-0.3008,-0.3011,-0.302,-0.3032,-0.3039,-0.3054,-0.3058,-0.3073,-0.3074,-0.307,-0.3071,-0.3078,-0.3078,-0.3101,-0.3105,-0.3087,-0.3087,-0.3087,0,-0.294,-0.2948,-0.2959,-0.2966,-0.2971,-0.2981,-0.2988,-0.2994,-0.3001,-0.3013,-0.302,-0.3032,-0.3042,-0.3062,-0.307,-0.3082,-0.3083,-0.3091,-0.3085,-0.3084,-0.3084,-0.3084,-0.3085,-0.3092,-0.3092,-0.3092,-0.3092,0,-0.2955,-0.2957,-0.2967,-0.2977,-0.2985,-0.2994,-0.3003,-0.3008,-0.3015,-0.3023,-0.3036,-0.3043,-0.3059,-0.3072,-0.3084,-0.3091,-0.3093,-0.3094,-0.3096,-0.3095,-0.3093,-0.3095,-0.3073,-0.3093,-0.3093,-0.3093,-0.3093,-0.3093,-0.2965,-0.2972,-0.2981,-0.2992,-0.2999,-0.3007,-0.3016,-0.3022,-0.3032,-0.3045,-0.3048,-0.3061,-0.3071,-0.3089,-0.3096,-0.3107,-0.3105,-0.3109,-0.311,-0.3111,-0.3112,-0.3091,-0.3109,-0.3109,-0.3109,-0.3109,-0.3109,0,-0.298,-0.2986,-0.2996,-0.3008,-0.3017,-0.3017,-0.3027,-0.3034,-0.3046,-0.3055,-0.3065,-0.3079,-0.3092,-0.3101,-0.3113,-0.312,-0.3122,-0.3124,-0.3124,-0.3125,-0.3112,-0.3108,-0.3122,-0.3122,-0.3122,-0.3122,-0.3122,-0.3122,-0.299,-0.3002,-0.3006,-0.3023,-0.3029,-0.3041,-0.3047,-0.3055,-0.3062,-0.3078,-0.3088,-0.3094,-0.3103,-0.3117,-0.3128,-0.3131,-0.3136,-0.3138,-0.314,-0.3128,-0.3126,-0.3125,-0.3122,-0.3138,-0.3139,-0.3153,-0.3153,-0.3154]},{"header":{"parameterUnit":"m.s-1","parameterCategory":1,"la1":30.2991,"la2":30.254,"lo1":-89.0895,"lo2":-89.0444,"dy":0.0017,"dx":0.0017,"nx":28,"ny":28,"refTime":"2025-11-19T09:00:00:Z","depth":0,"parameterNumber":3,"parameterNumberName":"V-component_of_WINDS"},"data":[0,0,0,0,0,0,0,0,0,0,0,0,0,0,0,0,0,0,0,0,0,0,0,0,0,0,0,0,0,0,0,0,0,0,0,0,0,0,0,0,0,0,0,0,0,0,0,0,0,0,0,0,0,0,0,0,0,0,0.0685,0.0685,0,0.0629,0.0629,0.0628,0.061,0.061,0.061,0.0611,0.0552,0.0551,0.0549,0,0,0,0,0,0,0,0,0,0,0,0,0,0.0775,0.0774,0.0685,0.0685,0.0684,0.063,0.0629,0.0628,0.061,0.061,0.061,0.0611,0.0553,0.0551,0.0549,0,0,0,0,0,0,0,0,0,0,0,0,0,0.0729,0.0773,0.0685,0.0668,0.0666,0.063,0.0629,0.0628,0.061,0.061,0.061,0.0611,0.0554,0.0551,0.0548,0.0525,0,0,0.054,0.0539,0,0,0,0,0,0,0,0,0.0732,0.0726,0.0671,0.0669,0.0667,0.0627,0.0639,0.0593,0.061,0.0631,0.0611,0.0611,0.0577,0.0572,0.0561,0.0522,0.0519,0.054,0.0538,0.0537,0.0537,0,0,0,0,0,0,0,0.0735,0.0728,0.0663,0.0671,0.0668,0.0663,0.0657,0.063,0.0603,0.0629,0.0628,0.0621,0.0576,0.0564,0.0559,0.0519,0.054,0.0538,0.0536,0.0535,0.0457,0.0457,0,0,0,0,0,0,0.0741,0.0731,0.0665,0.0661,0.0701,0.0661,0.0654,0.0639,0.0603,0.0598,0.0621,0.0621,0.0568,0.0563,0.0557,0.0527,0.0537,0.0535,0.0533,0.0458,0.0457,0.0456,0,0,0,0,0,0,0.0743,0.0736,0.0667,0.0696,0.0687,0.0659,0.0643,0.0638,0.0626,0.0597,0.0592,0.0614,0.0568,0.0561,0.0533,0.0525,0.0534,0.0531,0.0458,0.0457,0.0457,0.0466,0,0,0,0,0,0,0.0746,0.0736,0.0727,0.0696,0.0685,0.0644,0.0642,0.0637,0.0622,0.0621,0.0589,0.0584,0.0568,0.0537,0.053,0.0521,0.0529,0.0459,0.0458,0.0457,0.0467,0.0466,0.0465,0,0,0,0,0,0.0749,0.0732,0.0727,0.0719,0.0673,0.0644,0.0638,0.062,0.0621,0.0611,0.0593,0.0585,0.0527,0.0534,0.0527,0.0517,0.0459,0.0458,0.0457,0.0467,0.0466,0.0465,0,0,0,0,0,0,0.0763,0.0728,0.0722,0.0694,0.0672,0.0641,0.0628,0.062,0.0597,0.0597,0.0575,0.0568,0.0542,0.0526,0.0535,0.0492,0.0493,0.049,0.0503,0.0502,0.0501,0.0505,0.0527,0,0,0,0,0,0.0763,0.0742,0.0712,0.069,0.068,0.0656,0.0642,0.063,0.0607,0.0597,0.0576,0.0553,0.053,0.0515,0.0492,0.0464,0.0457,0.0454,0.0453,0.0453,0.0451,0.0435,0.0433,0.0453,0.0453,0.0453,0,0,0.0762,0.074,0.0728,0.0692,0.0674,0.0653,0.0648,0.0625,0.0609,0.0594,0.0566,0.055,0.0523,0.0495,0.0481,0.0481,0.0443,0.0451,0.0451,0.0449,0.0433,0.0431,0.043,0.0452,0.0452,0.0452,0,0,0.075,0.0731,0.0711,0.0693,0.0665,0.065,0.0645,0.0615,0.0604,0.0575,0.0563,0.0544,0.0504,0.0485,0.047,0.0451,0.0443,0.0444,0.0441,0.0426,0.0424,0.0423,0.0416,0.0413,0.0442,0.0442,0.0442,0,0.0752,0.072,0.0702,0.068,0.0664,0.065,0.0629,0.0612,0.0578,0.0568,0.0568,0.0518,0.0498,0.0466,0.0461,0.045,0.0443,0.0447,0.0426,0.0424,0.0423,0.0416,0.0413,0.0442,0.0442,0.0442,0.0442,0,0.0724,0.0702,0.0689,0.0657,0.064,0.0619,0.0597,0.0582,0.0572,0.0556,0.0527,0.0504,0.0476,0.0467,0.0457,0.0433,0.0434,0.043,0.0431,0.0421,0.0414,0.0412,0.0443,0.0443,0.0443,0.0443,0,0,0.0719,0.0677,0.0673,0.0658,0.0627,0.0609,0.0587,0.056,0.0547,0.0524,0.0505,0.0472,0.0468,0.0452,0.0439,0.0426,0.0412,0.0424,0.0423,0.0422,0.0384,0.0386,0.0384,0.0406,0.0406,0.0405,0.0386,0,0.0702,0.0663,0.0646,0.0614,0.0593,0.0579,0.0559,0.0538,0.0523,0.0502,0.0485,0.0462,0.0459,0.0449,0.0435,0.0417,0.0404,0.0418,0.0388,0.0387,0.0395,0.038,0.0383,0.0366,0.0383,0.0383,0.0382,0,0.0678,0.0655,0.0621,0.0592,0.0583,0.0566,0.054,0.052,0.0496,0.0485,0.0467,0.0455,0.0431,0.0433,0.04,0.041,0.0397,0.0386,0.0385,0.0381,0.0384,0.0376,0.036,0.0357,0.0378,0.0378,0.0379,0,0.0677,0.0638,0.0613,0.0601,0.0566,0.0555,0.054,0.0515,0.05,0.0477,0.0467,0.0441,0.0427,0.0407,0.0389,0.0392,0.0357,0.0358,0.0347,0.0348,0.034,0.0341,0.0322,0.0332,0.0333,0.0333,0.0333,0,0.066,0.064,0.0612,0.0596,0.0573,0.0554,0.0531,0.0515,0.0494,0.0475,0.0461,0.0443,0.042,0.0399,0.0384,0.0359,0.0352,0.0343,0.0339,0.0344,0.0345,0.0335,0.0336,0.0332,0.0332,0.0332,0.0332,0,0.0656,0.0636,0.0607,0.0577,0.0569,0.0553,0.0527,0.0512,0.0496,0.0472,0.0465,0.044,0.0414,0.0394,0.0361,0.0351,0.0324,0.032,0.0333,0.0331,0.0321,0.0322,0.0295,0.029,0.0304,0.0304,0.0304,0,0.0646,0.063,0.0598,0.0585,0.057,0.0548,0.0533,0.0513,0.0497,0.0468,0.0455,0.0429,0.0407,0.0368,0.0346,0.0321,0.0316,0.0308,0.0312,0.0317,0.0315,0.0316,0.0315,0.0307,0.0307,0.0307,0.0307,0,0.0631,0.0622,0.0601,0.0575,0.0557,0.0536,0.0515,0.0504,0.0481,0.0464,0.0438,0.0421,0.0387,0.0361,0.0334,0.0318,0.0308,0.0306,0.0302,0.0307,0.0315,0.031,0.0331,0.0307,0.0307,0.0307,0.0307,0.0307,0.0623,0.0609,0.0584,0.056,0.0542,0.0523,0.0506,0.0488,0.0467,0.0438,0.0428,0.0401,0.0376,0.0338,0.0323,0.0301,0.03,0.0295,0.0294,0.0292,0.0293,0.0318,0.0296,0.0296,0.0296,0.0296,0.0296,0,0.0608,0.0591,0.057,0.054,0.0521,0.0515,0.0491,0.0475,0.0452,0.043,0.0409,0.0379,0.0354,0.0331,0.0304,0.0292,0.0287,0.0286,0.0286,0.0283,0.0295,0.0301,0.029,0.029,0.029,0.029,0.029,0.029,0.0597,0.0572,0.056,0.0525,0.0509,0.0483,0.047,0.0452,0.0434,0.0402,0.0381,0.0366,0.0343,0.0315,0.0292,0.0285,0.0276,0.0276,0.0269,0.0281,0.0282,0.0283,0.0288,0.0274,0.0274,0.0258,0.0257,0.0257]}]]